Starlink 11294

operational
NORAD ID: 61054 Int'l Des: 2024-164 Owner: SPXS Country: US Constellation: starlink
LEOCIRCULAR

About Starlink 11294

Description loading...

Live Position

Loading 3D Globe...

Upcoming Passes

Altitude History

Altitude vs Time

uPlot chart will show altitude changes over time

Two-Line Element Set

1 61054U 24164E 25259.24787447 -.00001219 00000-0 -52092-5 0 9997
2 61054 53.1599 90.9998 0000971 105.8560 254.2565 15.69701778 58021
Epoch: Sep 16, 2025 • Age: 13 hours

Current Status

Altitude 363.5 km
Velocity 7.70 km/s
Sub-Earth Point 43.75°N, 53.34°W
Launch Date Sep 13, 2024
Age 1 years
Type internet

Technical Details

Classification Payload
Mass 960.00 kg
Dry Mass 910.00 kg
Total Mass 960.00 kg
Length 0.30 m
Diameter 4.10 m
Span 29.00 m
Shape Box + pan
Manufacturer SPXS
Bus Type Starlink V2MD
Phase Status In Orbit
Owner/State SPXS/US

Large Constellations

Loading constellations...